Year,Month,Day,Hour,Minute,Value (Times are PST for temperature in C)
2008,02,21,00,00,3.70
2008,02,21,00,01,3.80
2008,02,21,00,02,3.80
2008,02,21,00,03,3.80
2008,02,21,00,04,3.80
2008,02,21,00,05,3.80
2008,02,21,00,06,3.80
2008,02,21,00,07,3.90
2008,02,21,00,08,3.90
2008,02,21,00,09,3.90
2008,02,21,00,10,3.90
2008,02,21,00,11,4.00
2008,02,21,00,12,4.00
2008,02,21,00,13,4.00
2008,02,21,00,14,4.00
2008,02,21,00,15,4.00
2008,02,21,00,16,4.10
2008,02,21,00,17,4.10
2008,02,21,00,18,4.10
2008,02,21,00,19,4.10
2008,02,21,00,20,4.10
2008,02,21,00,21,4.10
2008,02,21,00,22,4.10
2008,02,21,00,23,4.10
2008,02,21,00,24,4.10
2008,02,21,00,25,4.10
2008,02,21,00,26,4.10
2008,02,21,00,27,4.10
2008,02,21,00,28,4.10
2008,02,21,00,29,4.10
2008,02,21,00,30,4.00
2008,02,21,00,31,4.00
2008,02,21,00,32,4.00
2008,02,21,00,33,3.90
2008,02,21,00,34,3.90
2008,02,21,00,35,3.90
2008,02,21,00,36,3.90
2008,02,21,00,37,3.90
2008,02,21,00,38,3.90
2008,02,21,00,39,3.90
2008,02,21,00,40,3.90
2008,02,21,00,41,3.90
2008,02,21,00,42,3.90
2008,02,21,00,43,3.80
2008,02,21,00,44,3.80
2008,02,21,00,45,3.80
2008,02,21,00,46,3.80
2008,02,21,00,47,3.80
2008,02,21,00,48,3.80
2008,02,21,00,49,3.80
2008,02,21,00,50,3.80
2008,02,21,00,51,3.80
2008,02,21,00,52,3.80
2008,02,21,00,53,3.80
2008,02,21,00,54,3.80
2008,02,21,00,55,3.80
2008,02,21,00,56,3.80
2008,02,21,00,57,3.80
2008,02,21,00,58,3.80
2008,02,21,00,59,3.80
2008,02,21,01,00,3.80
2008,02,21,01,01,3.80
2008,02,21,01,02,3.80
2008,02,21,01,03,3.80
2008,02,21,01,04,3.80
2008,02,21,01,05,3.70
2008,02,21,01,06,3.70
2008,02,21,01,07,3.70
2008,02,21,01,08,3.70
2008,02,21,01,09,3.70
2008,02,21,01,10,3.70
2008,02,21,01,11,3.70
2008,02,21,01,12,3.60
2008,02,21,01,13,3.60
2008,02,21,01,14,3.60
2008,02,21,01,15,3.60
2008,02,21,01,16,3.60
2008,02,21,01,17,3.60
2008,02,21,01,18,3.60
2008,02,21,01,19,3.60
2008,02,21,01,20,3.60
2008,02,21,01,21,3.60
2008,02,21,01,22,3.60
2008,02,21,01,23,3.60
2008,02,21,01,24,3.60
2008,02,21,01,25,3.70
2008,02,21,01,26,3.70
2008,02,21,01,27,3.70
2008,02,21,01,28,3.70
2008,02,21,01,29,3.70
2008,02,21,01,30,3.70
2008,02,21,01,31,3.70
2008,02,21,01,32,3.70
2008,02,21,01,33,3.70
2008,02,21,01,34,3.70
2008,02,21,01,35,3.70
2008,02,21,01,36,3.80
2008,02,21,01,37,3.80
2008,02,21,01,38,3.80
2008,02,21,01,39,3.80
2008,02,21,01,40,3.80
2008,02,21,01,41,3.80
2008,02,21,01,42,3.80
2008,02,21,01,43,3.80
2008,02,21,01,44,3.70
2008,02,21,01,45,3.70
2008,02,21,01,46,3.70
2008,02,21,01,47,3.60
2008,02,21,01,48,3.60
2008,02,21,01,49,3.50
2008,02,21,01,50,3.50
2008,02,21,01,51,3.40
2008,02,21,01,52,3.40
2008,02,21,01,53,3.30
2008,02,21,01,54,3.30
2008,02,21,01,55,3.30
2008,02,21,01,56,3.30
2008,02,21,01,57,3.30
2008,02,21,01,58,3.30
2008,02,21,01,59,3.30
2008,02,21,02,00,3.30
2008,02,21,02,01,3.30
2008,02,21,02,02,3.30
2008,02,21,02,03,3.30
2008,02,21,02,04,3.30
2008,02,21,02,05,3.40
2008,02,21,02,06,3.40
2008,02,21,02,07,3.50
2008,02,21,02,08,3.50
2008,02,21,02,09,3.50
2008,02,21,02,10,3.50
2008,02,21,02,11,3.60
2008,02,21,02,12,3.70
2008,02,21,02,13,3.70
2008,02,21,02,14,3.80
2008,02,21,02,15,3.80
2008,02,21,02,16,3.90
2008,02,21,02,17,4.00
2008,02,21,02,18,4.00
2008,02,21,02,19,4.10
2008,02,21,02,20,4.10
2008,02,21,02,21,4.10
2008,02,21,02,22,4.10
2008,02,21,02,23,4.20
2008,02,21,02,24,4.20
2008,02,21,02,25,4.20
2008,02,21,02,26,4.20
2008,02,21,02,27,4.20
2008,02,21,02,28,4.20
2008,02,21,02,29,4.20
2008,02,21,02,30,4.20
2008,02,21,02,31,4.20
2008,02,21,02,32,4.20
2008,02,21,02,33,4.20
2008,02,21,02,34,4.20
2008,02,21,02,35,4.20
2008,02,21,02,36,4.20
2008,02,21,02,37,4.20
2008,02,21,02,38,4.20
2008,02,21,02,39,4.20
2008,02,21,02,40,4.20
2008,02,21,02,41,4.20
2008,02,21,02,42,4.20
2008,02,21,02,43,4.20
2008,02,21,02,44,4.20
2008,02,21,02,45,4.20
2008,02,21,02,46,4.20
2008,02,21,02,47,4.20
2008,02,21,02,48,4.20
2008,02,21,02,49,4.20
2008,02,21,02,50,4.20
2008,02,21,02,51,4.20
2008,02,21,02,52,4.20
2008,02,21,02,53,4.20
2008,02,21,02,54,4.20
2008,02,21,02,55,4.20
2008,02,21,02,56,4.20
2008,02,21,02,57,4.20
2008,02,21,02,58,4.20
2008,02,21,02,59,4.20
2008,02,21,03,00,4.20
2008,02,21,03,01,4.20
2008,02,21,03,02,4.20
2008,02,21,03,03,4.20
2008,02,21,03,04,4.20
2008,02,21,03,05,4.10
2008,02,21,03,06,4.10
2008,02,21,03,07,4.10
2008,02,21,03,08,4.10
2008,02,21,03,09,4.10
2008,02,21,03,10,4.10
2008,02,21,03,11,4.10
2008,02,21,03,12,4.00
2008,02,21,03,13,4.00
2008,02,21,03,14,3.90
2008,02,21,03,15,3.90
2008,02,21,03,16,3.90
2008,02,21,03,17,3.80
2008,02,21,03,18,3.80
2008,02,21,03,19,3.80
2008,02,21,03,20,3.80
2008,02,21,03,21,3.80
2008,02,21,03,22,3.80
2008,02,21,03,23,3.80
2008,02,21,03,24,3.90
2008,02,21,03,25,3.90
2008,02,21,03,26,4.00
2008,02,21,03,27,4.10
2008,02,21,03,28,4.20
2008,02,21,03,29,4.30
2008,02,21,03,30,4.30
2008,02,21,03,31,4.40
2008,02,21,03,32,4.40
2008,02,21,03,33,4.40
2008,02,21,03,34,4.40
2008,02,21,03,35,4.40
2008,02,21,03,36,4.40
2008,02,21,03,37,4.40
2008,02,21,03,38,4.40
2008,02,21,03,39,4.40
2008,02,21,03,40,4.40
2008,02,21,03,41,4.30
2008,02,21,03,42,4.30
2008,02,21,03,43,4.30
2008,02,21,03,44,4.30
2008,02,21,03,45,4.20
2008,02,21,03,46,4.20
2008,02,21,03,47,4.10
2008,02,21,03,48,4.10
2008,02,21,03,49,4.10
2008,02,21,03,50,4.10
2008,02,21,03,51,4.00
2008,02,21,03,52,4.00
2008,02,21,03,53,3.90
2008,02,21,03,54,3.90
2008,02,21,03,55,3.90
2008,02,21,03,56,3.90
2008,02,21,03,57,3.90
2008,02,21,03,58,3.90
2008,02,21,03,59,3.90
2008,02,21,04,00,3.90
2008,02,21,04,01,3.90
2008,02,21,04,02,3.90
2008,02,21,04,03,3.90
2008,02,21,04,04,3.90
2008,02,21,04,05,3.90
2008,02,21,04,06,3.90
2008,02,21,04,20,3.80
2008,02,21,04,38,3.60
2008,02,21,04,51,3.50
2008,02,21,05,08,3.40
2008,02,21,05,24,3.40
2008,02,21,05,40,3.40
2008,02,21,05,58,2.90
2008,02,21,06,13,3.10
2008,02,21,06,20,2.90
2008,02,21,06,40,3.20
2008,02,21,06,59,3.40
2008,02,21,07,12,3.30
2008,02,21,07,29,3.30
2008,02,21,07,43,3.30
2008,02,21,07,47,3.40
2008,02,21,07,48,3.40
2008,02,21,07,49,3.50
2008,02,21,07,50,3.50
2008,02,21,07,51,3.50
2008,02,21,07,52,3.60
2008,02,21,08,01,3.90
2008,02,21,08,12,4.30
2008,02,21,08,22,4.50
2008,02,21,08,30,4.80
2008,02,21,08,34,5.20
2008,02,21,08,54,5.80
2008,02,21,09,10,6.10
2008,02,21,09,25,6.20
2008,02,21,09,38,6.40
2008,02,21,09,48,6.60
2008,02,21,10,07,6.90
2008,02,21,10,19,6.90
2008,02,21,10,30,7.00
2008,02,21,10,43,7.30
2008,02,21,10,49,7.40
2008,02,21,10,50,7.50
2008,02,21,10,51,7.60
2008,02,21,11,02,7.90
2008,02,21,11,16,8.10
2008,02,21,11,32,8.10
2008,02,21,11,53,8.30
2008,02,21,12,09,8.30
2008,02,21,12,26,8.60
2008,02,21,12,47,8.30
2008,02,21,13,03,8.40
2008,02,21,13,23,8.40
2008,02,21,13,46,9.20
2008,02,21,13,58,9.20
2008,02,21,14,07,9.50
2008,02,21,14,23,9.50
2008,02,21,14,35,9.60
2008,02,21,14,53,9.90
2008,02,21,15,15,10.00
2008,02,21,15,35,9.90
2008,02,21,15,52,10.10
2008,02,21,16,12,9.80
2008,02,21,16,30,9.90
2008,02,21,16,50,9.60
2008,02,21,17,08,9.10
2008,02,21,17,27,8.80
2008,02,21,17,29,8.70
2008,02,21,17,31,8.70
2008,02,21,17,32,8.70
2008,02,21,17,44,8.50
2008,02,21,17,52,8.30
2008,02,21,18,08,8.10
2008,02,21,18,23,7.70
2008,02,21,18,24,7.70
2008,02,21,18,25,7.60
2008,02,21,18,26,7.60
2008,02,21,18,27,7.60
2008,02,21,18,28,7.60
2008,02,21,18,29,7.60
2008,02,21,18,30,7.60
2008,02,21,18,31,7.60
2008,02,21,18,32,7.50
2008,02,21,18,33,7.50
2008,02,21,18,34,7.50
2008,02,21,18,35,7.50
2008,02,21,18,36,7.50
2008,02,21,18,37,7.40
2008,02,21,18,38,7.40
2008,02,21,18,39,7.40
2008,02,21,18,40,7.40
2008,02,21,18,41,7.30
2008,02,21,18,42,7.30
2008,02,21,18,43,7.20
2008,02,21,18,44,7.20
2008,02,21,18,45,7.20
2008,02,21,18,46,7.10
2008,02,21,18,47,7.10
2008,02,21,18,48,7.00
2008,02,21,18,49,7.00
2008,02,21,18,50,6.90
2008,02,21,18,51,6.80
2008,02,21,18,52,6.80
2008,02,21,18,53,6.70
2008,02,21,18,54,6.70
2008,02,21,18,55,6.60
2008,02,21,18,56,6.50
2008,02,21,18,57,6.50
2008,02,21,18,58,6.50
2008,02,21,18,59,6.40
2008,02,21,19,00,6.40
2008,02,21,19,01,6.30
2008,02,21,19,02,6.30
2008,02,21,19,03,6.20
2008,02,21,19,04,6.20
2008,02,21,19,05,6.20
2008,02,21,19,06,6.10
2008,02,21,19,07,6.10
2008,02,21,19,08,6.10
2008,02,21,19,09,6.10
2008,02,21,19,10,6.00
2008,02,21,19,11,6.10
2008,02,21,19,12,6.10
2008,02,21,19,13,6.10
2008,02,21,19,14,6.10
2008,02,21,19,15,6.10
2008,02,21,19,16,6.10
2008,02,21,19,17,6.10
2008,02,21,19,18,6.10
2008,02,21,19,19,6.10
2008,02,21,19,20,6.10
2008,02,21,19,21,6.00
2008,02,21,19,22,6.00
2008,02,21,19,23,5.90
2008,02,21,19,24,5.90
2008,02,21,19,25,5.80
2008,02,21,19,26,5.80
2008,02,21,19,27,5.70
2008,02,21,19,28,5.70
2008,02,21,19,29,5.60
2008,02,21,19,30,5.60
2008,02,21,19,31,5.60
2008,02,21,19,32,5.60
2008,02,21,19,33,5.50
2008,02,21,19,34,5.50
2008,02,21,19,35,5.40
2008,02,21,19,36,5.40
2008,02,21,19,37,5.30
2008,02,21,19,38,5.30
2008,02,21,19,39,5.30
2008,02,21,19,40,5.30
2008,02,21,19,41,5.20
2008,02,21,19,42,5.20
2008,02,21,19,43,5.20
2008,02,21,19,44,5.20
2008,02,21,19,45,5.20
2008,02,21,19,46,5.20
2008,02,21,19,47,5.20
2008,02,21,19,48,5.20
2008,02,21,19,49,5.20
2008,02,21,19,50,5.30
2008,02,21,19,51,5.30
2008,02,21,19,52,5.30
2008,02,21,19,53,5.30
2008,02,21,19,54,5.40
2008,02,21,19,55,5.40
2008,02,21,19,56,5.40
2008,02,21,19,57,5.50
2008,02,21,19,58,5.50
2008,02,21,19,59,5.60
2008,02,21,20,00,5.60
2008,02,21,20,01,5.60
2008,02,21,20,02,5.70
2008,02,21,20,03,5.70
2008,02,21,20,04,5.70
2008,02,21,20,05,5.80
2008,02,21,20,06,5.80
2008,02,21,20,07,5.80
2008,02,21,20,08,5.80
2008,02,21,20,09,5.80
2008,02,21,20,10,5.70
2008,02,21,20,11,5.70
2008,02,21,20,12,5.70
2008,02,21,20,13,5.70
2008,02,21,20,14,5.70
2008,02,21,20,15,5.70
2008,02,21,20,16,5.70
2008,02,21,20,17,5.70
2008,02,21,20,18,5.60
2008,02,21,20,19,5.60
2008,02,21,20,20,5.60
2008,02,21,20,21,5.60
2008,02,21,20,22,5.50
2008,02,21,20,23,5.50
2008,02,21,20,24,5.40
2008,02,21,20,25,5.40
2008,02,21,20,26,5.40
2008,02,21,20,27,5.30
2008,02,21,20,28,5.30
2008,02,21,20,29,5.30
2008,02,21,20,30,5.20
2008,02,21,20,31,5.20
2008,02,21,20,32,5.10
2008,02,21,20,33,5.10
2008,02,21,20,34,5.10
2008,02,21,20,35,5.10
2008,02,21,20,36,5.00
2008,02,21,20,37,5.00
2008,02,21,20,38,4.90
2008,02,21,20,39,4.90
2008,02,21,20,40,4.90
2008,02,21,20,41,4.90
2008,02,21,20,42,4.80
2008,02,21,20,43,4.80
2008,02,21,20,44,4.80
2008,02,21,20,45,4.80
2008,02,21,20,46,4.70
2008,02,21,20,47,4.70
2008,02,21,20,48,4.70
2008,02,21,20,49,4.60
2008,02,21,20,50,4.60
2008,02,21,20,51,4.60
2008,02,21,20,52,4.50
2008,02,21,20,53,4.50
2008,02,21,20,54,4.50
2008,02,21,20,55,4.50
2008,02,21,20,56,4.50
2008,02,21,20,57,4.50
2008,02,21,20,58,4.50
2008,02,21,20,59,4.50
2008,02,21,21,00,4.50
2008,02,21,21,01,4.50
2008,02,21,21,02,4.50
2008,02,21,23,18,2.10
2008,02,21,23,19,2.10
2008,02,21,23,20,2.20
2008,02,21,23,21,2.20
2008,02,21,23,22,2.30
2008,02,21,23,23,2.40
2008,02,21,23,24,2.50
2008,02,21,23,25,2.50
2008,02,21,23,26,2.60
2008,02,21,23,27,2.60
2008,02,21,23,28,2.60
2008,02,21,23,29,2.60
2008,02,21,23,30,2.60
2008,02,21,23,31,2.60
2008,02,21,23,32,2.60
2008,02,21,23,33,2.60
2008,02,21,23,34,2.60
2008,02,21,23,35,2.60
2008,02,21,23,36,2.60
2008,02,21,23,37,2.60
2008,02,21,23,38,2.60
2008,02,21,23,39,2.50
2008,02,21,23,40,2.50
2008,02,21,23,41,2.60
2008,02,21,23,42,2.70
2008,02,21,23,43,2.90
2008,02,21,23,44,3.10
2008,02,21,23,45,3.20
2008,02,21,23,46,3.20
2008,02,21,23,47,3.30
2008,02,21,23,48,3.50
2008,02,21,23,49,3.60
2008,02,21,23,50,3.80
2008,02,21,23,51,3.90
2008,02,21,23,52,4.10
2008,02,21,23,53,4.20
2008,02,21,23,54,4.30
2008,02,21,23,55,4.30
2008,02,21,23,56,4.50
2008,02,21,23,57,4.50
2008,02,21,23,58,4.60
2008,02,21,23,59,4.70
